TimeCDT,TemperatureF,Dew PointF,Humidity,Sea Level PressureIn,VisibilityMPH,Wind Direction,Wind SpeedMPH,Gust SpeedMPH,PrecipitationIn,Events,Conditions,WindDirDegrees,DateUTC
12:52 AM,-0.0,-0.0,100,30.34,10.0,Calm,Calm,-,N/A,,Clear,0,2013-03-26 05:52:00
1:52 AM,-2.0,-2.0,100,30.33,10.0,NNW,3.5,-,N/A,,Clear,330,2013-03-26 06:52:00
2:52 AM,-0.9,-2.9,91,30.30,10.0,North,4.6,-,N/A,,Clear,360,2013-03-26 07:52:00
3:52 AM,3.0,1.0,91,30.27,10.0,NNW,3.5,-,N/A,,Clear,330,2013-03-26 08:52:00
4:52 AM,1.9,-0.0,91,30.27,10.0,Calm,Calm,-,N/A,,Clear,0,2013-03-26 09:52:00
5:52 AM,-0.9,-4.0,87,30.26,10.0,Calm,Calm,-,N/A,,Clear,0,2013-03-26 10:52:00
6:52 AM,-4.0,-5.8,92,30.12,9.0,North,4.6,-,N/A,,Clear,10,2013-03-26 11:52:00
7:52 AM,1.0,-2.0,87,30.25,10.0,North,5.8,-,N/A,,Clear,10,2013-03-26 12:52:00
8:52 AM,6.1,3.0,87,30.24,10.0,North,4.6,-,N/A,,Clear,360,2013-03-26 13:52:00
9:52 AM,12.0,9.0,88,30.25,10.0,North,3.5,-,N/A,,Clear,350,2013-03-26 14:52:00
10:52 AM,17.6,12.2,79,30.10,10.0,ESE,4.6,-,N/A,,Clear,120,2013-03-26 15:52:00
11:52 AM,24.1,15.1,69,30.21,10.0,SSE,9.2,-,0.00,,Clear,160,2013-03-26 16:52:00
12:52 PM,27.0,18.0,69,30.20,10.0,SSE,9.2,-,0.01,,Clear,150,2013-03-26 17:52:00
1:52 PM,30.0,21.9,72,30.20,10.0,East,4.6,-,N/A,,Clear,90,2013-03-26 18:52:00
2:52 PM,33.1,21.0,61,30.19,10.0,SSE,9.2,-,N/A,,Clear,150,2013-03-26 19:52:00
3:52 PM,32.0,25.0,75,30.17,10.0,ESE,10.4,-,N/A,,Clear,110,2013-03-26 20:52:00
4:52 PM,34.0,24.1,67,30.16,10.0,ESE,12.7,-,N/A,,Clear,120,2013-03-26 21:52:00
5:52 PM,34.0,24.1,67,30.16,10.0,ESE,12.7,-,N/A,,Clear,120,2013-03-26 22:52:00
6:52 PM,32.0,25.0,75,30.18,10.0,East,11.5,-,N/A,,Clear,100,2013-03-26 23:52:00
7:52 PM,30.0,24.1,79,30.17,10.0,East,8.1,-,N/A,,Clear,100,2013-03-27 00:52:00
8:52 PM,26.6,23.0,86,30.06,10.0,ESE,4.6,-,N/A,,Clear,120,2013-03-27 01:52:00
9:52 PM,25.0,21.0,85,30.18,10.0,ESE,5.8,-,N/A,,Clear,110,2013-03-27 02:52:00
10:52 PM,23.0,19.9,88,30.19,10.0,ENE,3.5,-,N/A,,Clear,70,2013-03-27 03:52:00
11:52 PM,23.0,19.0,85,30.18,10.0,ENE,4.6,-,N/A,,Clear,60,2013-03-27 04:52:00